When you browse on this site, cookies collect data to enhance your experience and personalize the content and advertising you see.
Visit our Privacy Policy to learn more. By continuing to use the site, you agree to this use of cookies and data.
  • In Latvia
  • List of Countries
  • For 7 days
  • Water Temperature
  • Weather Map
  • Weather Widgets
  • user-avatar
    Login

    Hourly Weather Melbourne

    Today, 15 September, Sunday

    Time Temperature Precipitation Wind Pressure Humidity
    00:00 +15°C° 0 mm 4 mps 764 mmHg 58%
    01:00 +15°C° 0 mm 4 mps 763 mmHg 55%
    02:00 +15°C° 0 mm 4 mps 763 mmHg 56%
    03:00 +15°C° 0 mm 4 mps 763 mmHg 56%
    04:00 +15°C° 0 mm 5 mps 762 mmHg 56%
    05:00 +15°C° 0 mm 5 mps 762 mmHg 57%
    06:00 +14°C° 0 mm 5 mps 762 mmHg 58%
    07:00 +14°C° 0 mm 5 mps 762 mmHg 59%
    08:00 +14°C° 0 mm 5 mps 762 mmHg 60%
    09:00 +14°C° 0 mm 6 mps 762 mmHg 61%
    10:00 +15°C° 0 mm 8 mps 762 mmHg 70%
    11:00 +15°C° 0.2 mm 7 mps 761 mmHg 69%
    12:00 +16°C° 0.2 mm 7 mps 761 mmHg 69%
    13:00 +17°C° 0.2 mm 6 mps 760 mmHg 68%
    14:00 +19°C° 0.1 mm 6 mps 760 mmHg 65%
    15:00 +20°C° 0.1 mm 5 mps 759 mmHg 63%
    16:00 +21°C° 0.1 mm 5 mps 759 mmHg 60%
    17:00 +20°C° 1.2 mm 4 mps 759 mmHg 68%
    18:00 +19°C° 1.2 mm 3 mps 759 mmHg 76%
    19:00 +19°C° 1.2 mm 1 mps 759 mmHg 84%
    20:00 +17°C° 1.3 mm 2 mps 759 mmHg 86%
    21:00 +17°C° 1.3 mm 2 mps 759 mmHg 88%
    22:00 +16°C° 1.3 mm 3 mps 759 mmHg 90%
    23:00 +14°C° 0.4 mm 3 mps 759 mmHg 88%

    Tomorrow, 16 September, Monday

    Time Temperature Precipitation Wind Pressure Humidity
    00:00 +13°C° 0.4 mm 4 mps 760 mmHg 87%
    01:00 +13°C° 0.4 mm 4 mps 760 mmHg 85%
    02:00 +12°C° 0.9 mm 4 mps 760 mmHg 84%
    03:00 +11°C° 0.9 mm 4 mps 760 mmHg 82%
    04:00 +10°C° 0.9 mm 4 mps 760 mmHg 81%
    05:00 +10°C° 0.1 mm 4 mps 761 mmHg 81%
    06:00 +9°C° 0.1 mm 3 mps 761 mmHg 81%
    07:00 +9°C° 0.1 mm 3 mps 762 mmHg 81%
    08:00 +10°C° 0.1 mm 4 mps 763 mmHg 74%
    09:00 +10°C° 0.1 mm 4 mps 763 mmHg 66%
    10:00 +10°C° 0.1 mm 5 mps 764 mmHg 59%
    11:00 +10°C° 0 mm 6 mps 764 mmHg 56%
    12:00 +11°C° 0 mm 6 mps 764 mmHg 53%
    13:00 +11°C° 0 mm 6 mps 764 mmHg 49%
    14:00 +11°C° 0 mm 6 mps 764 mmHg 48%
    15:00 +10°C° 0 mm 6 mps 764 mmHg 47%
    16:00 +10°C° 0 mm 6 mps 765 mmHg 46%
    17:00 +9°C° 0 mm 6 mps 765 mmHg 52%
    18:00 +8°C° 0 mm 5 mps 766 mmHg 58%
    19:00 +7°C° 0 mm 4 mps 767 mmHg 64%
    20:00 +6°C° 0 mm 4 mps 767 mmHg 64%
    21:00 +6°C° 0 mm 4 mps 768 mmHg 63%
    22:00 +5°C° 0 mm 4 mps 768 mmHg 63%
    23:00 +5°C° 0 mm 4 mps 769 mmHg 66%

    Day after tomorrow, 17 September, Tuesday

    Time Temperature Precipitation Wind Pressure Humidity
    00:00 +5°C° 0 mm 4 mps 769 mmHg 69%
    01:00 +5°C° 0 mm 4 mps 769 mmHg 72%
    02:00 +4°C° 0 mm 4 mps 769 mmHg 72%
    03:00 +4°C° 0 mm 3 mps 769 mmHg 73%
    04:00 +4°C° 0 mm 3 mps 768 mmHg 73%
    05:00 +4°C° 0 mm 3 mps 769 mmHg 73%
    06:00 +4°C° 0 mm 3 mps 769 mmHg 72%
    07:00 +4°C° 0 mm 3 mps 770 mmHg 72%
    08:00 +7°C° 0 mm 3 mps 770 mmHg 64%
    09:00 +8°C° 0 mm 3 mps 770 mmHg 56%
    10:00 +10°C° 0 mm 3 mps 770 mmHg 49%
    11:00 +11°C° 0 mm 3 mps 770 mmHg 46%
    12:00 +12°C° 0 mm 3 mps 769 mmHg 44%
    13:00 +13°C° 0 mm 3 mps 769 mmHg 42%
    14:00 +13°C° 0 mm 3 mps 769 mmHg 43%
    15:00 +13°C° 0 mm 3 mps 768 mmHg 45%
    16:00 +12°C° 0 mm 3 mps 768 mmHg 47%
    17:00 +11°C° 0 mm 3 mps 769 mmHg 53%
    18:00 +9°C° 0 mm 3 mps 769 mmHg 60%
    19:00 +8°C° 0 mm 2 mps 770 mmHg 67%
    20:00 +7°C° 0 mm 2 mps 770 mmHg 70%
    21:00 +7°C° 0 mm 2 mps 770 mmHg 73%
    22:00 +7°C° 0 mm 1 mps 771 mmHg 76%
    23:00 +7°C° 0 mm 1 mps 771 mmHg 77%

    18 September, Wednesday

    Time Temperature Precipitation Wind Pressure Humidity
    00:00 +6°C° 0 mm 1 mps 771 mmHg 79%
    01:00 +6°C° 0 mm 1 mps 771 mmHg 80%
    02:00 +6°C° 0 mm 1 mps 770 mmHg 80%
    03:00 +6°C° 0 mm 1 mps 770 mmHg 80%
    04:00 +4°C° 0 mm 2 mps 770 mmHg 80%
    05:00 +5°C° 0 mm 2 mps 770 mmHg 78%
    06:00 +4°C° 0 mm 3 mps 770 mmHg 77%
    07:00 +5°C° 0 mm 3 mps 770 mmHg 75%
    08:00 +7°C° 0 mm 4 mps 770 mmHg 68%
    09:00 +11°C° 0 mm 4 mps 770 mmHg 61%
    10:00 +13°C° 0 mm 4 mps 770 mmHg 53%
    11:00 +14°C° 0 mm 4 mps 769 mmHg 50%
    12:00 +15°C° 0 mm 4 mps 768 mmHg 48%
    13:00 +18°C° 0 mm 4 mps 768 mmHg 45%
    14:00 +18°C° 0 mm 4 mps 767 mmHg 47%
    15:00 +17°C° 0 mm 4 mps 767 mmHg 48%
    16:00 +17°C° 0 mm 4 mps 766 mmHg 50%
    17:00 +16°C° 0 mm 3 mps 767 mmHg 56%
    18:00 +13°C° 0 mm 3 mps 767 mmHg 63%
    19:00 +12°C° 0 mm 3 mps 767 mmHg 69%
    20:00 +11°C° 0 mm 3 mps 767 mmHg 73%
    21:00 +10°C° 0 mm 3 mps 767 mmHg 77%
    22:00 +9°C° 0 mm 3 mps 767 mmHg 80%
    23:00 +9°C° 0 mm 3 mps 767 mmHg 79%

    19 September, Thursday

    Time Temperature Precipitation Wind Pressure Humidity
    00:00 +8°C° 0 mm 4 mps 766 mmHg 77%
    01:00 +8°C° 0 mm 4 mps 766 mmHg 76%
    02:00 +8°C° 0 mm 4 mps 765 mmHg 74%
    03:00 +10°C° 0 mm 4 mps 765 mmHg 72%
    04:00 +9°C° 0 mm 5 mps 764 mmHg 70%
    05:00 +9°C° 0 mm 5 mps 764 mmHg 69%
    06:00 +10°C° 0 mm 5 mps 764 mmHg 67%
    07:00 +10°C° 0 mm 5 mps 764 mmHg 66%
    08:00 +13°C° 0 mm 6 mps 763 mmHg 61%
    09:00 +15°C° 0 mm 7 mps 763 mmHg 55%
    10:00 +17°C° 0 mm 8 mps 763 mmHg 50%
    11:00 +18°C° 0 mm 8 mps 762 mmHg 48%
    12:00 +20°C° 0 mm 8 mps 761 mmHg 47%
    13:00 +21°C° 0 mm 8 mps 760 mmHg 45%
    14:00 +20°C° 0.1 mm 8 mps 759 mmHg 48%
    15:00 +20°C° 0.1 mm 8 mps 759 mmHg 52%
    16:00 +20°C° 0.1 mm 8 mps 758 mmHg 55%
    17:00 +18°C° 0 mm 8 mps 758 mmHg 58%
    18:00 +18°C° 0 mm 7 mps 758 mmHg 60%
    19:00 +17°C° 0 mm 6 mps 759 mmHg 63%
    20:00 +17°C° 0 mm 6 mps 758 mmHg 60%
    21:00 +18°C° 0 mm 7 mps 758 mmHg 58%
    22:00 +18°C° 0 mm 7 mps 758 mmHg 56%
    23:00 +18°C° 0 mm 7 mps 757 mmHg 54%

    20 September, Friday

    Time Temperature Precipitation Wind Pressure Humidity
    00:00 +18°C° 0 mm 7 mps 757 mmHg 52%
    01:00 +18°C° 0 mm 7 mps 756 mmHg 50%
    02:00 +18°C° 0 mm 7 mps 756 mmHg 51%
    03:00 +18°C° 0 mm 7 mps 756 mmHg 52%
    04:00 +17°C° 0 mm 6 mps 756 mmHg 52%
    05:00 +17°C° 0 mm 6 mps 757 mmHg 55%
    06:00 +16°C° 0 mm 5 mps 758 mmHg 58%
    07:00 +15°C° 0 mm 5 mps 759 mmHg 61%
    08:00 +16°C° 0.1 mm 5 mps 759 mmHg 63%
    09:00 +17°C° 0.1 mm 4 mps 759 mmHg 64%
    10:00 +17°C° 0.1 mm 4 mps 759 mmHg 65%
    11:00 +15°C° 0.9 mm 5 mps 759 mmHg 71%
    12:00 +15°C° 0.9 mm 5 mps 759 mmHg 76%
    13:00 +14°C° 0.9 mm 5 mps 758 mmHg 82%
    14:00 +12°C° 2.3 mm 4 mps 759 mmHg 82%
    15:00 +11°C° 2.3 mm 3 mps 759 mmHg 83%
    16:00 +10°C° 2.3 mm 2 mps 759 mmHg 83%
    17:00 +10°C° 0.1 mm 2 mps 759 mmHg 83%
    18:00 +11°C° 0.1 mm 1 mps 760 mmHg 83%
    19:00 +11°C° 0.1 mm 1 mps 761 mmHg 84%
    20:00 +10°C° 0 mm 2 mps 761 mmHg 82%
    21:00 +9°C° 0 mm 2 mps 761 mmHg 81%
    22:00 +9°C° 0 mm 2 mps 761 mmHg 79%
    23:00 +9°C° 0 mm 2 mps 762 mmHg 78%
    Show more